WX3I Weather Reports


time (UTC)temp
C
wind
direction
speed
KPH
gust
KPH
rain 1hr
cm
rain 24hr
cm
rain mn
cm
humidity
%
barometer
mb
20260510142504 17 342 3.2 9.7 0.00 1.04 0.00 79 1015.3
20260510141504 16 341 3.2 4.8 0.00 1.04 0.00 80 1015.1
20260510141004 16 220 1.6 9.7 0.00 1.04 0.00 81 1015.0
20260510140504 16 219 4.8 8.0 0.00 1.04 0.00 81 1014.9
20260510140004 16 13 1.6 3.2 0.00 1.04 0.00 85 1015.0
20260510135504 16 324 3.2 8.0 0.00 1.04 0.00 85 1014.9
20260510135004 16 47 3.2 8.0 0.00 1.04 0.00 86 1014.8
20260510134504 15 89 1.6 4.8 0.00 1.04 0.00 86 1014.8
20260510134004 15 217 1.6 4.8 0.00 1.04 0.00 88 1014.7
20260510133504 15 311 1.6 4.8 0.00 1.04 0.00 93 1014.7
20260510133004 14 207 0.0 4.8 0.00 1.04 0.00 96 1014.8
20260510132504 14 35 0.0 4.8 0.00 1.04 0.00 98 1014.8
20260510132005 13 117 1.6 4.8 0.00 1.04 0.00 98 1014.8
20260510131504 13 200 1.6 4.8 0.00 1.04 0.00 98 1014.8
20260510131004 13 177 1.6 4.8 0.00 1.04 0.00 99 1014.8
20260510130504 13 203 0.0 4.8 0.00 1.04 0.00 99 1014.8
20260510130004 13 308 1.6 3.2 0.00 1.04 0.00 100 1014.8
20260510125505 12 132 0.0 3.2 0.00 1.04 0.00 100 1014.8
20260510125004 12 9 1.6 3.2 0.00 1.04 0.00 100 1014.8
20260510124505 12 34 0.0 3.2 0.00 1.04 0.00 100 1014.9
20260510124004 12 328 1.6 3.2 0.00 1.04 0.00 99 1014.9
20260510123504 12 146 0.0 0.0 0.00 1.04 0.00 100 1014.9
20260510122504 11 216 1.6 4.8 0.00 1.04 0.00 99 1014.6
20260510122004 11 221 0.0 4.8 0.00 1.04 0.00 99 1014.5
20260510121505 11 209 1.6 4.8 0.00 1.04 0.00 99 1014.5
20260510120504 11 198 1.6 4.8 0.00 1.04 0.00 99 1014.3
20260510120004 11 222 3.2 4.8 0.00 1.04 0.00 99 1014.2
20260510115505 11 213 1.6 4.8 0.00 1.04 0.00 99 1014.2
20260510115004 11 209 3.2 8.0 0.00 1.04 0.00 99 1014.1
20260510114504 11 215 4.8 9.7 0.00 1.04 0.00 99 1014.0
20260510114004 11 179 4.8 9.7 0.00 1.04 0.00 99 1013.9
20260510113504 11 196 3.2 4.8 0.00 1.04 0.00 99 1013.8
20260510113004 11 213 1.6 4.8 0.00 1.04 0.00 99 1014.0
20260510112504 11 206 3.2 4.8 0.00 1.04 0.00 99 1013.8
20260510112004 11 220 1.6 4.8 0.00 1.04 0.00 99 1013.9
20260510111504 11 211 0.0 1.6 0.00 1.04 0.00 99 1014.0
20260510111004 11 136 0.0 3.2 0.00 1.04 0.00 99 1014.0
20260510110504 11 187 1.6 8.0 0.00 1.04 0.00 99 1013.7
20260510110005 10 218 0.0 4.8 0.00 1.04 0.00 99 1013.8
20260510105504 10 319 0.0 0.0 0.00 1.04 0.00 99 1013.8
20260510105004 10 319 0.0 0.0 0.00 1.04 0.00 99 1013.9
20260510104505 10 319 0.0 1.6 0.00 1.04 0.00 99 1013.8
20260510104004 10 339 0.0 1.6 0.00 1.04 0.00 99 1013.8
20260510103505 10 192 0.0 0.0 0.00 1.04 0.00 99 1013.7
20260510102004 10 192 0.0 0.0 0.00 1.04 0.00 99 1013.4
20260510101504 10 192 0.0 0.0 0.00 1.04 0.00 99 1013.4
20260510101004 10 192 0.0 1.6 0.00 1.04 0.00 99 1013.3
20260510100504 10 194 0.0 1.6 0.00 1.04 0.00 99 1013.2
20260510100004 10 319 0.0 0.0 0.00 1.04 0.00 99 1013.4
20260510095504 10 301 0.0 1.6 0.00 1.04 0.00 99 1013.5
20260510095004 10 45 0.0 1.6 0.00 1.04 0.00 99 1013.3
20260510093505 10 206 0.0 3.2 0.00 1.04 0.00 99 1013.3
20260510093004 10 302 0.0 1.6 0.00 1.04 0.00 99 1013.3
20260510091504 10 102 0.0 1.6 0.00 1.04 0.00 99 1012.9
20260510091004 10 196 0.0 1.6 0.00 1.04 0.00 99 1012.9
20260510090504 10 49 0.0 3.2 0.00 1.04 0.00 98 1013.0
20260510090004 10 51 0.0 0.0 0.00 1.04 0.00 98 1013.1
20260510085504 10 61 1.6 3.2 0.00 1.04 0.00 98 1013.2
20260510085004 10 30 0.0 3.2 0.00 1.04 0.00 98 1013.3
20260510084504 10 31 0.0 3.2 0.00 1.04 0.00 98 1013.2
20260510083504 9 43 1.6 4.8 0.00 1.04 0.00 98 1013.1
20260510082504 9 23 3.2 4.8 0.00 1.04 0.00 98 1013.5
20260510082004 9 48 3.2 8.0 0.00 1.04 0.00 98 1013.0
20260510081505 9 8 4.8 8.0 0.00 1.04 0.00 98 1013.2
20260510081004 9 35 4.8 9.7 0.00 1.04 0.00 98 1013.2
20260510080504 9 328 1.6 4.8 0.00 1.04 0.00 98 1013.0
20260510080004 9 9 1.6 4.8 0.00 1.04 0.00 98 1012.9
20260510075504 9 41 1.6 3.2 0.00 1.04 0.00 98 1012.6
20260510074504 9 43 3.2 4.8 0.00 1.04 0.00 98 1012.5
20260510074004 9 41 3.2 4.8 0.00 1.04 0.00 98 1012.5
20260510073004 8 42 3.2 4.8 0.00 1.04 0.00 98 1012.6
20260510072504 8 39 3.2 4.8 0.00 1.04 0.00 98 1012.5
20260510072005 8 44 3.2 4.8 0.00 1.04 0.00 98 1012.5
20260510071504 8 51 3.2 4.8 0.00 1.04 0.00 98 1012.6
20260510071004 8 25 3.2 3.2 0.00 1.04 0.00 98 1012.6
20260510070504 8 33 3.2 4.8 0.00 1.04 0.00 98 1012.5
20260510065504 8 18 6.4 9.7 0.00 1.04 0.00 98 1012.8
20260510065004 8 25 4.8 4.8 0.00 1.04 0.00 98 1012.6
20260510064004 9 22 4.8 8.0 0.00 1.04 0.00 98 1012.4
20260510063504 10 19 3.2 4.8 0.00 1.04 0.00 98 1012.3
20260510062504 10 225 0.0 3.2 0.00 1.04 0.00 98 1012.0
20260510061504 10 225 0.0 3.2 0.00 1.04 0.00 98 1012.0
20260510061004 10 225 0.0 3.2 0.00 1.04 0.00 98 1012.0
20260510060005 10 245 0.0 1.6 0.00 1.04 0.00 98 1012.1
20260510055504 10 227 0.0 1.6 0.00 1.04 0.00 98 1012.2
20260510055004 10 237 0.0 3.2 0.00 1.04 0.00 98 1012.3
20260510054504 10 259 1.6 4.8 0.00 1.04 0.00 98 1012.2
20260510054004 10 198 1.6 4.8 0.00 1.04 0.00 98 1012.3
20260510053004 11 215 1.6 3.2 0.00 1.04 0.00 98 1012.4
20260510052004 11 230 0.0 3.2 0.00 1.04 0.00 98 1012.4
20260510051504 11 245 0.0 1.6 0.00 1.04 0.00 98 1012.4
20260510051009 11 220 1.6 3.2 0.00 1.04 0.00 98 1012.4
20260510050004 11 235 0.0 3.2 0.00 1.04 0.00 98 1012.5
20260510045507 11 230 0.0 0.0 0.00 1.04 0.00 98 1012.5
20260510045005 11 230 0.0 3.2 0.00 1.04 0.00 98 1012.6
20260510044004 11 220 0.0 3.2 0.00 1.04 0.00 97 1012.7
20260510043504 11 247 0.0 1.6 0.00 1.04 0.00 97 1012.6
20260510042005 11 204 1.6 4.8 0.00 1.04 0.00 97 1012.7
20260510041004 11 244 0.0 3.2 0.00 1.04 0.00 98 1012.8
20260510040505 10 231 0.0 1.6 0.00 1.04 0.00 97 1012.8
20260510035004 10 62 0.0 1.6 0.00 1.04 0.81 97 1012.9
20260510033504 11 298 0.0 0.0 0.00 1.04 0.81 97 1012.8
20260510033004 11 298 0.0 1.6 0.00 1.04 0.81 97 1012.6
20260510032505 11 69 0.0 1.6 0.00 1.04 0.81 97 1012.6
20260510032004 11 252 0.0 1.6 0.00 1.04 0.81 97 1012.6
20260510031004 11 269 0.0 1.6 0.00 1.04 0.81 97 1012.4
20260510030504 11 245 0.0 1.6 0.00 1.04 0.81 97 1012.3
20260510030004 11 220 0.0 1.6 0.00 1.04 0.81 97 1012.4
20260510025503 11 239 0.0 0.0 0.00 1.04 0.81 97 1012.4
20260510024004 11 201 0.0 0.0 0.00 1.04 0.81 97 1012.4
20260510023504 11 212 0.0 3.2 0.00 1.04 0.81 97 1012.4
20260510022504 11 219 0.0 3.2 0.00 1.04 0.81 97 1012.3
20260510022004 11 228 0.0 3.2 0.00 1.04 0.81 96 1012.3
20260510021504 11 229 0.0 3.2 0.00 1.04 0.81 97 1012.3
20260510020504 11 229 0.0 3.2 0.00 1.04 0.81 96 1012.3
20260510020004 11 243 1.6 4.8 0.00 1.04 0.81 96 1012.3
20260510015504 11 188 0.0 3.2 0.00 1.04 0.81 96 1012.2
20260510014005 11 204 0.0 3.2 0.00 1.04 0.81 96 1012.1
20260510013504 11 217 0.0 3.2 0.00 1.04 0.81 96 1012.2
20260510012004 11 239 0.0 1.6 0.00 1.04 0.81 96 1012.1
20260510011504 11 220 0.0 0.0 0.00 1.04 0.81 96 1012.1
20260510011004 11 220 0.0 1.6 0.00 1.04 0.81 95 1012.1
20260510010504 11 222 0.0 3.2 0.00 1.04 0.81 96 1012.1
20260510010004 11 221 0.0 1.6 0.00 1.04 0.81 95 1011.9
20260510005504 11 228 0.0 1.6 0.00 1.04 0.81 95 1011.9
20260510005004 11 261 0.0 4.8 0.00 1.04 0.81 95 1011.8
20260510004504 11 230 0.0 3.2 0.00 1.04 0.81 95 1011.7
20260510004004 11 123 0.0 1.6 0.00 1.04 0.81 95 1011.8
20260510003504 11 215 0.0 1.6 0.00 1.04 0.81 95 1011.8
20260510003004 11 241 0.0 0.0 0.00 1.04 0.81 95 1011.8
20260510002504 12 241 0.0 0.0 0.00 1.04 0.81 95 1011.8
20260510002005 12 241 0.0 1.6 0.00 1.04 0.81 95 1011.8
20260510001504 12 233 0.0 0.0 0.00 1.04 0.81 95 1011.7
20260510001004 12 233 0.0 1.6 0.00 1.04 0.81 94 1011.7
20260510000504 12 40 0.0 3.2 0.00 1.04 0.81 94 1011.6
20260510000004 12 220 0.0 1.6 0.00 1.04 0.81 94 1011.7
20260509235505 12 229 0.0 3.2 0.00 1.04 0.81 94 1011.6
20260509235004 12 211 0.0 3.2 0.00 1.04 0.81 94 1011.6
20260509234504 12 214 1.6 3.2 0.00 1.04 0.81 94 1011.7
20260509234004 12 231 0.0 1.6 0.00 1.04 0.81 93 1011.8
20260509233505 12 232 0.0 1.6 0.00 1.04 0.81 93 1011.8
20260509233004 12 233 0.0 0.0 0.00 1.04 0.81 92 1011.8
20260509232504 12 233 0.0 0.0 0.00 1.04 0.81 92 1011.8
20260509231504 12 234 0.0 3.2 0.00 1.04 0.81 91 1011.7
20260509230504 12 201 1.6 4.8 0.00 1.04 0.81 91 1011.7
20260509230004 12 197 0.0 8.0 0.08 1.04 0.81 90 1011.6
20260509225504 13 175 1.6 8.0 0.08 1.04 0.81 90 1011.7
20260509225004 13 204 4.8 9.7 0.08 1.04 0.81 91 1011.7
20260509224504 13 203 3.2 9.7 0.08 1.04 0.81 92 1011.7
20260509224005 13 189 1.6 4.8 0.08 1.04 0.81 93 1011.7
20260509223505 13 208 3.2 9.7 0.08 1.04 0.81 93 1011.6
20260509223005 13 218 3.2 9.7 0.08 1.04 0.81 93 1011.8
20260509222504 13 203 3.2 8.0 0.03 1.04 0.81 93 1011.8
20260509222004 13 207 4.8 12.9 0.03 1.04 0.81 92 1011.7
20260509221504 13 185 3.2 11.3 0.03 1.04 0.81 93 1011.6
20260509221004 13 220 4.8 11.3 0.03 1.04 0.81 92 1011.5
20260509220504 13 210 1.6 11.3 0.03 1.04 0.81 92 1011.6
20260509215504 13 194 4.8 9.7 0.00 0.97 0.76 92 1011.6
20260509215004 13 176 3.2 8.0 0.00 0.97 0.76 92 1011.6
20260509214504 13 179 3.2 8.0 0.00 0.97 0.76 90 1011.7
20260509214004 13 172 0.0 3.2 0.00 0.97 0.76 90 1011.7
20260509213505 13 212 1.6 4.8 0.03 0.97 0.76 90 1011.7
20260509213004 13 195 0.0 1.6 0.03 0.97 0.76 90 1011.7
20260509212504 13 234 0.0 0.0 0.13 0.97 0.79 89 1011.8
20260509212005 13 234 0.0 0.0 0.13 0.97 0.79 90 1011.9
20260509211004 13 32 1.6 3.2 0.18 0.97 0.79 91 1011.8
20260509210505 13 26 0.0 3.2 0.20 0.97 0.79 92 1011.7
20260509210004 13 53 1.6 4.8 0.20 0.97 0.81 93 1011.7
20260509205004 12 32 1.6 4.8 0.23 0.97 0.81 95 1011.6
20260509204504 12 0 1.6 4.8 0.23 0.97 0.81 95 1011.9
20260509204004 12 32 3.2 8.0 0.23 0.97 0.81 95 1011.8
20260509203505 12 60 0.0 8.0 0.20 0.94 0.79 95 1011.7
20260509203004 12 348 1.6 8.0 0.23 0.94 0.79 95 1011.6
20260509202504 12 49 1.6 4.8 0.18 0.81 0.66 95 1011.5
20260509202004 12 54 0.0 4.8 0.18 0.81 0.66 95 1011.6
20260509201004 12 62 3.2 9.7 0.15 0.79 0.61 95 1011.7
20260509195504 12 27 1.6 4.8 0.20 0.76 0.61 95 1011.8
20260509195005 12 51 1.6 4.8 0.20 0.74 0.58 95 1012.0
20260509194504 12 49 1.6 4.8 0.18 0.74 0.56 94 1012.1
20260509194004 12 17 0.0 8.0 0.18 0.74 0.56 94 1012.2
20260509193504 12 37 1.6 4.8 0.18 0.71 0.56 94 1012.2
20260509192004 12 35 1.6 4.8 0.08 0.64 0.48 94 1012.5
20260509191504 12 20 3.2 4.8 0.08 0.61 0.46 94 1012.5
20260509190504 12 6 1.6 8.0 0.20 0.61 0.56 94 1012.7
20260509185504 12 9 1.6 4.8 0.03 0.43 0.41 94 1012.8
20260509184504 12 17 1.6 3.2 0.05 0.43 0.38 94 1012.8
20260509184005 12 6 1.6 4.8 0.05 0.43 0.38 93 1012.9
20260509183504 12 2 1.6 4.8 0.05 0.43 0.38 93 1012.9
20260509183004 12 32 1.6 4.8 0.05 0.43 0.38 93 1013.0
20260509182504 12 17 1.6 3.2 0.10 0.41 0.41 93 1013.0
20260509181504 12 8 1.6 4.8 0.10 0.41 0.38 92 1013.2
20260509181004 12 359 0.0 3.2 0.08 0.41 0.38 92 1013.3
20260509180504 12 6 1.6 8.0 0.08 0.38 0.38 92 1013.2
20260509175504 12 36 1.6 4.8 0.08 0.38 0.36 91 1013.3
20260509174504 13 3 1.6 3.2 0.08 0.38 0.36 90 1013.3
20260509174005 13 9 1.6 8.0 0.08 0.36 0.36 90 1013.4
20260509173505 13 342 3.2 4.8 0.08 0.36 0.33 89 1013.2
20260509173004 13 341 0.0 4.8 0.10 0.36 0.33 89 1013.1
20260509172004 13 349 1.6 3.2 0.13 0.33 0.30 89 1012.9
20260509171504 13 325 0.0 3.2 0.15 0.33 0.30 89 1012.9
20260509171004 13 242 0.0 3.2 0.20 0.33 0.30 90 1012.8
20260509170505 13 51 1.6 8.0 0.23 0.30 0.28 87 1012.8
20260509170004 13 305 1.6 4.8 0.25 0.30 0.28 88 1013.0
20260509165504 13 307 0.0 3.2 0.25 0.30 0.28 88 1013.1
20260509165004 13 23 0.0 3.2 0.25 0.30 0.28 87 1013.1
20260509164004 13 343 0.0 1.6 0.25 0.28 0.28 86 1013.1
20260509163505 13 286 0.0 3.2 0.25 0.28 0.25 86 1013.1
20260509163004 13 175 0.0 3.2 0.23 0.23 0.23 85 1013.2
20260509162504 13 159 0.0 1.6 0.18 0.20 0.18 84 1013.3
20260509162004 13 309 0.0 4.8 0.18 0.18 0.18 82 1013.3
20260509161504 14 2 1.6 4.8 0.13 0.13 0.13 80 1013.4
20260509161004 14 118 1.6 12.9 0.10 0.10 0.10 79 1013.6
20260509160504 15 29 1.6 11.3 0.05 0.05 0.05 78 1013.8
20260509160004 15 335 1.6 9.7 0.05 0.05 0.05 77 1013.9
20260509155004 15 352 0.0 4.8 0.03 0.03 0.03 76 1013.7
20260509154504 15 254 3.2 8.0 0.03 0.03 0.03 75 1013.7
20260509154004 15 327 1.6 9.7 0.03 0.03 0.03 74 1013.8
20260509153505 15 281 1.6 9.7 0.00 0.00 0.00 73 1013.9
20260509153004 16 320 1.6 9.7 0.00 0.00 0.00 72 1013.9
20260509152504 16 189 3.2 8.0 0.00 0.00 0.00 71 1013.8
20260509152004 16 214 1.6 12.9 0.00 0.00 0.00 71 1013.8
20260509151004 16 9 3.2 8.0 0.00 0.00 0.00 71 1013.8
20260509150504 16 292 1.6 9.7 0.00 0.00 0.00 71 1013.7
20260509150004 16 215 1.6 8.0 0.00 0.00 0.00 71 1013.6
20260509145504 15 243 1.6 12.9 0.00 0.00 0.00 70 1013.7
20260509145004 15 222 3.2 9.7 0.00 0.00 0.00 70 1013.6
20260509144504 15 196 3.2 8.0 0.00 0.00 0.00 71 1013.6
20260509144004 15 30 3.2 8.0 0.00 0.00 0.00 72 1013.6
20260509143004 15 30 1.6 9.7 0.00 0.00 0.00 71 1013.6